Total_Precipitation_Accumulation
2.17 2.22 2.09 2.10 2.09 2.31 2.71 3.19 3.17 3.36 3.38 3.07 2.64 2.45 2.48 2.34 2.29 2.23 1.86 1.91 2.11 2.17 2.18 2.17 2.13 2.08 2.07 1.99 1.80 1.63 1.40 1.27 1.10 0.88 0.70 0.62 0.67 0.62 0.48 0.38 0.30 0.23 0.20
1.99 1.96 1.93 2.11 2.15 2.10 2.26 2.67 2.87 3.21 3.22 2.91 2.43 2.23 2.21 2.25 2.14 2.11 1.86 1.88 2.00 1.88 1.90 2.13 2.34 2.39 2.32 2.19 2.06 1.87 1.63 1.47 1.27 0.98 0.82 0.76 0.62 0.58 0.59 0.47 0.35 0.25 0.20
1.70 1.70 1.77 1.77 1.84 1.79 1.86 2.02 2.27 2.54 2.54 2.44 2.36 2.30 2.23 2.12 1.95 1.93 1.97 1.90 1.66 1.71 1.80 1.94 2.13 2.27 2.43 2.56 2.47 2.21 1.94 1.64 1.36 1.06 0.83 0.70 0.59 0.47 0.42 0.43 0.42 0.33 0.21
1.19 1.29 1.32 1.31 1.32 1.22 1.34 1.63 1.72 1.92 2.18 2.32 2.43 2.27 2.19 2.22 2.01 1.95 1.91 1.91 1.87 1.60 1.82 1.89 1.88 1.94 2.23 2.53 2.63 2.67 2.33 1.91 1.57 1.30 1.01 0.76 0.62 0.52 0.41 0.37 0.41 0.40 0.28
1.02 1.11 1.18 1.27 1.04 1.02 1.09 1.04 1.38 1.58 1.83 1.96 1.73 1.86 1.78 1.83 1.75 1.54 1.55 1.43 1.62 1.59 1.70 1.71 1.75 1.72 1.94 2.45 2.88 3.11 2.91 2.40 1.89 1.58 1.41 1.14 0.94 0.73 0.55 0.45 0.39 0.37 0.31
1.10 1.18 1.06 1.08 0.96 1.08 1.21 1.30 1.54 1.49 1.46 1.55 1.35 1.57 1.49 1.37 1.39 1.31 1.19 1.22 1.26 1.15 1.34 1.50 1.58 1.39 1.63 2.13 2.63 2.99 3.12 2.94 2.46 1.99 1.80 1.66 1.49 1.13 0.79 0.61 0.49 0.43 0.37
1.26 1.33 1.08 1.31 1.17 1.14 1.19 1.22 1.34 1.34 1.23 1.21 1.57 1.76 1.42 1.10 1.08 0.96 0.93 1.05 1.12 1.15 1.34 1.55 1.56 1.53 1.38 1.42 1.59 2.09 2.67 3.15 3.14 2.63 2.24 2.04 1.91 1.50 1.02 0.84 0.74 0.59 0.52
1.24 1.13 1.31 1.16 1.18 1.27 1.29 1.34 1.43 1.41 1.25 1.22 1.54 1.87 1.65 1.60 1.43 0.79 0.87 0.97 1.05 1.24 1.30 1.30 1.42 1.60 1.39 1.51 1.08 1.17 1.84 2.42 3.02 3.00 2.56 2.22 2.09 1.81 1.35 1.08 0.93 0.82 0.72
1.16 1.18 1.18 1.17 1.32 1.13 1.35 1.51 1.46 1.51 1.47 1.32 1.33 1.60 1.66 1.62 1.43 1.12 0.89 0.85 0.96 1.21 1.24 1.29 1.25 1.41 1.51 1.68 1.59 1.19 1.34 1.55 2.18 2.89 2.99 2.53 2.09 1.82 1.61 1.45 1.25 0.99 0.87
1.12 1.12 1.12 1.23 1.36 1.18 1.44 1.17 1.24 1.46 1.54 1.38 1.30 1.18 1.21 1.37 1.49 1.44 1.20 0.95 0.94 1.05 1.10 1.04 1.07 1.27 1.35 1.40 1.43 1.05 0.84 0.94 1.52 2.34 2.84 2.83 2.45 2.03 1.74 1.67 1.75 1.61 1.28
1.22 1.07 1.13 1.22 1.26 1.18 1.24 1.25 1.49 1.39 1.35 1.33 1.33 1.29 1.29 1.22 1.09 1.21 1.31 1.27 1.17 0.92 0.83 0.88 0.98 1.12 1.18 1.26 1.49 1.12 0.83 0.88 1.04 1.40 1.84 2.22 2.37 2.21 1.95 1.97 2.30 2.51 2.30
1.22 1.17 1.24 1.26 1.20 1.12 1.15 1.19 1.31 1.33 1.39 1.45 1.32 1.20 1.27 1.22 1.12 1.18 1.07 1.07 1.13 0.86 0.74 0.75 0.83 0.95 1.04 1.19 1.20 1.00 0.98 1.08 1.11 1.13 1.19 1.38 1.71 1.89 1.93 2.03 2.31 2.72 2.96
1.06 1.14 1.22 1.34 1.26 1.24 1.19 1.26 1.26 1.23 1.31 1.37 1.26 1.13 1.11 1.00 1.07 1.16 1.18 1.03 0.99 0.79 0.81 0.72 0.74 0.80 0.80 1.09 1.36 1.34 1.15 1.24 1.19 1.13 1.11 1.11 1.23 1.44 1.55 1.66 1.95 2.31 2.69
1.15 1.14 1.21 1.19 1.20 1.21 1.19 1.43 1.24 1.15 1.19 1.19 1.08 1.27 1.21 0.92 0.93 1.06 1.19 1.29 1.21 1.02 1.02 0.93 0.92 0.96 0.96 1.09 1.35 1.50 1.24 1.24 1.12 1.02 0.98 0.96 0.99 1.09 1.21 1.29 1.40 1.54 1.73
1.27 1.22 1.14 1.10 1.14 1.22 1.28 1.37 1.28 1.27 1.30 1.17 1.10 1.22 1.15 0.96 0.92 0.89 1.07 1.34 1.50 1.38 1.25 1.16 1.16 1.17 1.16 1.20 1.32 1.19 1.22 1.29 1.19 1.07 0.97 0.91 0.90 0.87 0.88 0.95 1.02 1.05 1.06
1.09 1.14 1.12 1.06 1.12 1.19 1.29 1.36 1.38 1.47 1.53 1.39 1.26 1.26 1.20 1.09 1.13 0.99 1.04 1.24 1.46 1.59 1.51 1.13 1.17 1.16 1.24 1.15 1.33 1.22 1.27 1.34 1.20 1.09 0.97 0.91 0.88 0.87 0.86 0.86 0.91 0.98 1.00
1.05 1.08 1.12 1.14 1.16 1.21 1.30 1.33 1.29 1.47 1.60 1.63 1.46 1.38 1.34 1.33 1.33 1.21 1.23 1.29 1.37 1.56 1.59 1.32 1.25 1.36 1.44 1.37 1.41 1.38 1.30 1.32 1.24 1.17 1.01 0.93 0.89 0.86 0.88 0.88 0.88 0.89 0.93
1.18 1.20 1.22 1.28 1.28 1.26 1.33 1.30 1.20 1.26 1.45 1.65 1.84 1.89 1.69 1.59 1.57 1.43 1.41 1.37 1.39 1.51 1.60 1.55 1.45 1.49 1.50 1.48 1.47 1.30 1.10 1.05 1.12 1.21 1.12 1.02 0.97 0.91 0.88 0.87 0.87 0.86 0.87
1.41 1.43 1.48 1.44 1.43 1.45 1.41 1.35 1.33 1.37 1.45 1.52 1.71 1.90 1.90 1.94 1.76 1.68 1.60 1.52 1.48 1.44 1.56 1.55 1.48 1.61 1.64 1.63 1.50 1.21 1.11 1.15 1.04 1.18 1.17 1.00 0.90 0.87 0.84 0.80 0.78 0.79 0.79
1.60 1.64 1.69 1.64 1.60 1.61 1.58 1.52 1.48 1.47 1.51 1.51 1.53 1.59 1.71 1.92 1.89 1.84 1.74 1.69 1.67 1.68 1.71 1.68 1.64 1.73 1.91 1.96 1.75 1.41 1.25 1.21 1.12 0.98 1.04 0.95 0.89 0.85 0.81 0.75 0.72 0.70 0.70
1.81 1.94 1.90 1.80 1.75 1.74 1.61 1.65 1.77 1.77 1.80 1.65 1.55 1.49 1.48 1.65 1.73 1.74 1.60 1.62 1.73 1.79 1.82 1.81 1.79 1.87 1.95 2.06 1.79 1.52 1.33 1.25 1.19 1.05 0.97 0.86 0.83 0.81 0.84 0.87 0.83 0.74 0.69
2.07 2.01 1.94 1.91 1.87 1.71 1.80 1.82 1.73 1.75 1.92 1.92 1.80 1.71 1.58 1.48 1.48 1.52 1.58 1.61 1.65 1.67 1.73 1.79 1.77 1.81 1.88 1.94 1.98 1.78 1.52 1.32 1.20 1.09 1.05 0.95 0.89 0.87 0.79 0.75 0.83 0.79 0.72
1.99 1.91 1.94 1.96 1.90 1.91 1.85 1.63 1.51 1.51 1.59 1.69 1.76 1.74 1.52 1.39 1.45 1.40 1.55 1.60 1.53 1.47 1.44 1.51 1.57 1.65 1.96 2.15 2.32 2.06 1.81 1.62 1.42 1.27 1.17 1.01 0.93 0.87 0.78 0.76 0.86 0.75 0.69
1.80 1.75 1.74 1.66 1.61 1.60 1.59 1.39 1.33 1.29 1.30 1.28 1.39 1.49 1.45 1.36 1.35 1.38 1.31 1.22 1.16 1.17 1.16 1.11 1.17 1.38 1.68 2.11 2.34 2.35 2.27 2.04 1.80 1.46 1.22 1.05 0.88 0.82 0.78 0.73 0.82 0.78 0.71
1.57 1.42 1.35 1.35 1.34 1.40 1.52 1.33 1.26 1.22 1.27 1.18 1.18 1.18 1.19 1.11 1.15 1.12 1.04 0.95 0.90 0.91 0.94 0.96 0.98 1.14 1.37 1.66 2.01 2.16 2.10 1.90 1.62 1.31 1.09 0.95 0.84 0.82 0.77 0.70 0.72 0.82 0.76
1.46 1.43 1.35 1.29 1.28 1.30 1.42 1.25 1.16 1.15 1.22 1.18 1.17 1.20 1.29 1.14 1.01 0.85 0.82 0.85 0.78 0.76 0.80 0.81 0.82 0.89 1.00 1.21 1.58 1.70 1.70 1.69 1.51 1.27 1.01 0.93 0.86 0.93 0.88 0.75 0.69 0.69 0.71